FW5198 Weather Reports


time (UTC)temp
F
wind
direction
speed
knots
gust
knots
rain 1hr
in
rain 24hr
in
rain mn
in
humidity
%
barometer
mb
20260906124550 75 29 0.0 4.3 0.00 0.00 0.00 91 1014.0
20260906123048 74 52 0.0 3.5 0.00 0.00 0.00 92 1014.0
20260906121554 74 32 0.9 3.5 0.00 0.00 0.00 93 1014.1
20260906120050 73 25 0.9 6.1 0.00 0.00 0.00 94 1013.8
20260906114557 73 46 1.7 5.2 0.00 0.00 0.00 94 1013.5
20260906113054 73 0 0.9 3.5 0.00 0.00 0.00 95 1013.3
20260906111545 73 0 0.9 3.5 0.00 0.00 0.00 95 1013.4
20260906110049 73 41 0.9 2.6 0.00 0.00 0.00 95 1013.2
20260906104548 73 48 0.0 3.5 0.00 0.00 0.00 95 1013.2
20260906103048 73 40 1.7 4.3 0.00 0.00 0.00 93 1013.2
20260906101546 73 39 1.7 3.5 0.00 0.00 0.00 93 1013.1
20260906100050 73 57 1.7 5.2 0.00 0.00 0.00 91 1013.2
20260906094548 73 0 0.9 3.5 0.00 0.00 0.00 91 1013.2
20260906093045 73 30 0.0 1.7 0.00 0.00 0.00 89 1013.1
20260906091550 73 25 0.0 3.5 0.00 0.00 0.00 88 1012.9
20260906090054 74 37 0.0 4.3 0.00 0.00 0.00 87 1012.9
20260906084548 74 39 0.9 3.5 0.00 0.00 0.00 85 1012.8
20260906083053 75 0 0.0 4.3 0.00 0.00 0.00 86 1012.8
20260906081553 75 34 1.7 3.5 0.00 0.00 0.00 86 1012.9
20260906080046 76 0 0.9 3.5 0.00 0.00 0.00 85 1012.8
20260906074604 77 38 0.0 2.6 0.00 0.00 0.00 83 1012.8
20260906073053 78 0 0.0 3.5 0.00 0.00 0.00 81 1013.0
20260906071547 79 0 0.9 4.3 0.00 0.00 0.00 80 1013.0
20260906070055 80 0 0.9 7.0 0.00 0.00 0.00 79 1013.4
20260906064548 80 13 1.7 5.2 0.00 0.00 0.00 82 1013.3
20260906063049 81 1 1.7 6.1 0.00 0.00 0.00 84 1013.2
20260906061550 81 0 0.0 4.3 0.00 0.00 0.00 82 1012.9
20260906060058 80 0 0.0 0.9 0.00 0.00 0.00 87 1012.8
20260906054548 80 0 0.0 0.9 0.00 0.00 0.00 88 1012.8
20260906053046 79 0 0.0 0.9 0.00 0.00 0.00 89 1013.0
20260906051558 78 0 0.0 0.9 0.00 0.00 0.00 92 1012.8
20260906050056 78 0 0.0 0.9 0.00 0.00 0.00 91 1012.8
20260906044551 78 0 0.0 0.9 0.00 0.00 0.00 92 1012.8
20260906043046 78 0 0.0 0.9 0.00 0.00 0.00 91 1012.8
20260906041554 78 0 0.0 0.9 0.00 0.00 0.00 90 1012.7
20260906040050 79 0 0.0 0.9 0.00 0.00 0.00 90 1013.1
20260906034546 79 0 0.0 0.0 0.00 0.00 0.00 90 1013.0
20260906033048 79 0 0.0 0.9 0.00 0.00 0.00 89 1012.8
20260906031600 80 0 0.0 0.9 0.00 0.00 0.00 88 1012.8
20260906030048 80 0 0.0 0.0 0.00 0.00 0.00 89 1012.7
20260906024546 81 0 0.0 0.9 0.00 0.00 0.00 88 1012.4
20260906023050 81 0 0.0 0.0 0.00 0.00 0.00 89 1012.2
20260906021555 81 0 0.0 0.9 0.00 0.00 0.00 88 1011.9
20260906020057 81 0 0.0 0.9 0.00 0.00 0.00 87 1012.1
20260906014546 82 0 0.0 0.9 0.00 0.00 0.00 87 1012.2
20260906013048 83 44 0.0 0.9 0.00 0.00 0.00 86 1012.0
20260906011550 84 44 0.0 0.9 0.00 0.00 0.00 85 1012.0
20260906010047 84 44 0.0 0.0 0.00 0.00 0.00 85 1011.9
20260906004553 85 44 0.0 0.9 0.00 0.00 0.00 82 1011.7
20260906003049 86 44 0.0 0.9 0.00 0.00 0.00 80 1011.9
20260906001548 87 44 0.0 0.9 0.00 0.00 0.00 79 1011.9
20260906000046 89 0 0.0 0.9 0.00 0.00 0.00 75 1011.9
20260905234553 91 44 0.0 0.9 0.00 0.00 0.00 73 1012.1
20260905233049 93 44 0.0 0.9 0.00 0.00 0.00 68 1012.2
20260905231546 94 43 0.0 2.6 0.00 0.00 0.00 64 1011.8
20260905230054 96 48 0.9 1.7 0.00 0.00 0.00 58 1011.9
20260905224601 96 46 0.9 2.6 0.00 0.00 0.00 58 1011.8
20260905223053 97 25 0.9 4.3 0.00 0.00 0.00 55 1011.9
20260905221556 96 38 0.9 4.3 0.00 0.00 0.00 55 1011.8
20260905220106 96 91 0.0 6.1 0.00 0.00 0.00 55 1012.0
20260905214549 97 0 1.7 5.2 0.00 0.00 0.00 54 1011.9
20260905213050 98 57 0.9 3.5 0.00 0.00 0.00 53 1012.0
20260905211603 98 46 1.7 5.2 0.00 0.00 0.00 51 1012.1
20260905210056 98 87 0.9 1.7 0.00 0.00 0.00 52 1012.1
20260905204555 98 200 0.9 3.5 0.00 0.00 0.00 51 1012.3
20260905203111 98 54 0.9 3.5 0.00 0.00 0.00 51 1012.5
20260905201547 98 1 1.7 7.8 0.00 0.00 0.00 51 1012.8
20260905200054 97 25 3.5 7.0 0.00 0.00 0.00 52 1013.0
20260905194551 97 29 0.9 4.3 0.00 0.00 0.00 52 1013.1
20260905193048 97 61 3.5 7.0 0.00 0.00 0.00 55 1013.4
20260905191546 97 30 1.7 7.8 0.00 0.00 0.00 54 1013.4
20260905190047 97 15 2.6 7.0 0.00 0.00 0.00 55 1013.8
20260905184600 97 150 0.9 5.2 0.00 0.00 0.00 56 1014.2
20260905183050 96 188 0.9 3.5 0.00 0.00 0.00 57 1014.2
20260905181605 95 69 0.9 3.5 0.00 0.00 0.00 59 1014.4
20260905180051 96 30 0.9 6.1 0.00 0.00 0.00 58 1014.6
20260905174624 95 20 2.6 5.2 0.00 0.00 0.00 59 1014.6
20260905173056 98 154 0.0 1.7 0.00 0.00 0.00 58 1014.7
20260905171549 97 37 0.0 2.6 0.00 0.00 0.00 55 1014.9
20260905170046 96 0 0.0 0.0 0.00 0.00 0.00 58 1015.0
20260905164546 95 0 0.0 0.0 0.00 0.00 0.00 56 1015.2
20260905163050 95 0 0.0 0.0 0.00 0.00 0.00 58 1015.3
20260905161547 94 0 0.0 0.0 0.00 0.00 0.00 60 1015.4
20260905160114 91 0 0.0 0.0 0.00 0.00 0.00 64 1015.5
20260905154551 89 0 0.0 0.0 0.00 0.00 0.00 71 1015.7
20260905153047 88 0 0.0 0.0 0.00 0.00 0.00 72 1015.9
20260905151602 87 0 0.0 0.0 0.00 0.00 0.00 75 1015.8
20260905150055 86 0 0.0 0.0 0.00 0.00 0.00 77 1015.9
20260905144549 84 0 0.0 0.0 0.00 0.00 0.00 82 1016.0
20260905143048 82 0 0.0 0.0 0.00 0.00 0.00 86 1016.0
20260905141550 81 0 0.0 0.0 0.00 0.00 0.00 87 1015.8
20260905140049 81 0 0.0 0.0 0.00 0.00 0.00 87 1015.8
20260905134545 79 0 0.0 0.0 0.00 0.00 0.00 89 1015.7
20260905133052 78 0 0.0 0.0 0.00 0.00 0.00 91 1015.9
20260905131549 77 0 0.0 0.0 0.00 0.00 0.00 91 1015.9
20260905130056 77 0 0.0 0.0 0.00 0.00 0.00 93 1015.8